When you browse on this site, cookies collect data to enhance your experience and personalize the content and advertising you see.
Visit our Privacy Policy to learn more. By continuing to use the site, you agree to this use of cookies and data.
  • In Lithuania
  • List of Countries
  • For 7 days
  • Water Temperature
  • Weather Map
  • Weather Widgets
  • user-avatar
    Login

    Hourly Weather Batina

    Today, 17 October, Thursday

    Time Temperature Precipitation Wind Pressure Humidity
    00:00 +16°C° 0 mm 1 mps 673 mmHg 72%
    01:00 +15°C° 0 mm 1 mps 673 mmHg 73%
    02:00 +15°C° 0 mm 1 mps 672 mmHg 74%
    03:00 +15°C° 0 mm 1 mps 672 mmHg 76%
    04:00 +15°C° 0 mm 1 mps 672 mmHg 76%
    05:00 +15°C° 0 mm 2 mps 672 mmHg 76%
    06:00 +15°C° 0 mm 2 mps 673 mmHg 77%
    07:00 +17°C° 0 mm 2 mps 673 mmHg 70%
    08:00 +19°C° 0 mm 3 mps 674 mmHg 63%
    09:00 +20°C° 0 mm 3 mps 674 mmHg 55%
    10:00 +21°C° 0 mm 4 mps 674 mmHg 53%
    11:00 +22°C° 0 mm 4 mps 674 mmHg 50%
    12:00 +23°C° 0 mm 5 mps 674 mmHg 48%
    13:00 +23°C° 0.1 mm 5 mps 674 mmHg 49%
    14:00 +22°C° 0.1 mm 5 mps 674 mmHg 49%
    15:00 +22°C° 0.1 mm 4 mps 673 mmHg 50%
    16:00 +21°C° 0.1 mm 3 mps 673 mmHg 56%
    17:00 +20°C° 0.1 mm 3 mps 673 mmHg 61%
    18:00 +19°C° 0.1 mm 2 mps 673 mmHg 66%
    19:00 +19°C° 0.1 mm 2 mps 673 mmHg 67%
    20:00 +20°C° 0.1 mm 1 mps 673 mmHg 67%
    21:00 +20°C° 0.1 mm 1 mps 674 mmHg 67%
    22:00 +19°C° 0.1 mm 1 mps 673 mmHg 68%
    23:00 +18°C° 0.1 mm 2 mps 673 mmHg 68%

    Tomorrow, 18 October, Friday

    Time Temperature Precipitation Wind Pressure Humidity
    00:00 +18°C° 0.1 mm 2 mps 673 mmHg 69%
    01:00 +17°C° 0 mm 2 mps 672 mmHg 71%
    02:00 +17°C° 0 mm 2 mps 672 mmHg 73%
    03:00 +17°C° 0 mm 2 mps 672 mmHg 75%
    04:00 +16°C° 0 mm 2 mps 672 mmHg 76%
    05:00 +16°C° 0 mm 2 mps 672 mmHg 77%
    06:00 +16°C° 0 mm 1 mps 672 mmHg 78%
    07:00 +19°C° 0 mm 1 mps 673 mmHg 69%
    08:00 +20°C° 0 mm 1 mps 673 mmHg 61%
    09:00 +22°C° 0 mm 1 mps 674 mmHg 52%
    10:00 +23°C° 0 mm 2 mps 674 mmHg 48%
    11:00 +24°C° 0 mm 3 mps 674 mmHg 43%
    12:00 +25°C° 0 mm 3 mps 674 mmHg 39%
    13:00 +25°C° 0 mm 3 mps 673 mmHg 39%
    14:00 +25°C° 0 mm 4 mps 673 mmHg 39%
    15:00 +25°C° 0 mm 4 mps 673 mmHg 39%
    16:00 +24°C° 0 mm 3 mps 672 mmHg 44%
    17:00 +21°C° 0 mm 2 mps 672 mmHg 49%
    18:00 +20°C° 0 mm 2 mps 672 mmHg 54%
    19:00 +20°C° 0 mm 2 mps 672 mmHg 58%
    20:00 +20°C° 0 mm 1 mps 672 mmHg 61%
    21:00 +19°C° 0 mm 1 mps 672 mmHg 65%
    22:00 +19°C° 0 mm 1 mps 672 mmHg 65%
    23:00 +19°C° 0 mm 1 mps 672 mmHg 65%

    Day after tomorrow, 19 October, Saturday

    Time Temperature Precipitation Wind Pressure Humidity
    00:00 +19°C° 0 mm 1 mps 671 mmHg 65%
    01:00 +17°C° 0 mm 2 mps 671 mmHg 66%
    02:00 +17°C° 0 mm 2 mps 671 mmHg 67%
    03:00 +17°C° 0 mm 2 mps 671 mmHg 69%
    04:00 +17°C° 0 mm 2 mps 670 mmHg 69%
    05:00 +16°C° 0 mm 2 mps 670 mmHg 70%
    06:00 +16°C° 0 mm 2 mps 670 mmHg 71%
    07:00 +18°C° 0 mm 3 mps 671 mmHg 63%
    08:00 +20°C° 0 mm 4 mps 672 mmHg 54%
    09:00 +22°C° 0 mm 5 mps 672 mmHg 46%
    10:00 +23°C° 0 mm 5 mps 672 mmHg 43%
    11:00 +24°C° 0 mm 6 mps 672 mmHg 40%
    12:00 +26°C° 0 mm 7 mps 672 mmHg 37%
    13:00 +24°C° 0 mm 6 mps 672 mmHg 38%
    14:00 +24°C° 0 mm 6 mps 672 mmHg 38%
    15:00 +24°C° 0 mm 6 mps 671 mmHg 39%
    16:00 +22°C° 0 mm 5 mps 671 mmHg 43%
    17:00 +21°C° 0 mm 4 mps 671 mmHg 47%
    18:00 +20°C° 0 mm 3 mps 670 mmHg 51%
    19:00 +20°C° 0 mm 2 mps 671 mmHg 52%
    20:00 +19°C° 0 mm 2 mps 671 mmHg 53%
    21:00 +19°C° 0 mm 2 mps 671 mmHg 55%
    22:00 +18°C° 0 mm 2 mps 671 mmHg 55%
    23:00 +18°C° 0 mm 2 mps 671 mmHg 56%

    20 October, Sunday

    Time Temperature Precipitation Wind Pressure Humidity
    00:00 +18°C° 0 mm 2 mps 671 mmHg 57%
    01:00 +17°C° 0 mm 2 mps 671 mmHg 58%
    02:00 +17°C° 0 mm 2 mps 670 mmHg 60%
    03:00 +17°C° 0 mm 2 mps 670 mmHg 61%
    04:00 +17°C° 0 mm 2 mps 670 mmHg 62%
    05:00 +16°C° 0 mm 2 mps 670 mmHg 62%
    06:00 +16°C° 0 mm 2 mps 670 mmHg 63%
    07:00 +18°C° 0 mm 2 mps 671 mmHg 56%
    08:00 +20°C° 0 mm 2 mps 672 mmHg 49%
    09:00 +23°C° 0 mm 2 mps 672 mmHg 42%
    10:00 +24°C° 0 mm 2 mps 672 mmHg 39%
    11:00 +25°C° 0 mm 3 mps 672 mmHg 36%
    12:00 +26°C° 0 mm 3 mps 672 mmHg 33%
    13:00 +25°C° 0 mm 4 mps 672 mmHg 34%
    14:00 +25°C° 0 mm 4 mps 672 mmHg 34%
    15:00 +25°C° 0 mm 4 mps 671 mmHg 34%
    16:00 +24°C° 0 mm 3 mps 671 mmHg 38%
    17:00 +21°C° 0 mm 3 mps 671 mmHg 42%
    18:00 +20°C° 0 mm 2 mps 671 mmHg 47%
    19:00 +19°C° 0 mm 2 mps 671 mmHg 48%
    20:00 +20°C° 0 mm 1 mps 671 mmHg 49%
    21:00 +19°C° 0 mm 1 mps 671 mmHg 51%
    22:00 +19°C° 0 mm 1 mps 671 mmHg 51%
    23:00 +19°C° 0 mm 1 mps 670 mmHg 51%

    21 October, Monday

    Time Temperature Precipitation Wind Pressure Humidity
    00:00 +19°C° 0 mm 1 mps 670 mmHg 51%
    01:00 +18°C° 0 mm 1 mps 670 mmHg 52%
    02:00 +18°C° 0 mm 1 mps 670 mmHg 53%
    03:00 +18°C° 0 mm 1 mps 670 mmHg 54%
    04:00 +16°C° 0 mm 1 mps 670 mmHg 56%
    05:00 +16°C° 0 mm 1 mps 670 mmHg 57%
    06:00 +16°C° 0 mm 1 mps 670 mmHg 58%
    07:00 +19°C° 0 mm 1 mps 670 mmHg 52%
    08:00 +20°C° 0 mm 2 mps 671 mmHg 46%
    09:00 +23°C° 0 mm 2 mps 672 mmHg 40%
    10:00 +24°C° 0 mm 3 mps 672 mmHg 39%
    11:00 +25°C° 0 mm 3 mps 672 mmHg 38%
    12:00 +26°C° 0 mm 4 mps 672 mmHg 37%
    13:00 +26°C° 0 mm 4 mps 671 mmHg 36%
    14:00 +26°C° 0 mm 5 mps 671 mmHg 36%
    15:00 +26°C° 0 mm 5 mps 671 mmHg 36%
    16:00 +23°C° 0 mm 4 mps 670 mmHg 42%
    17:00 +22°C° 0 mm 3 mps 670 mmHg 49%
    18:00 +21°C° 0 mm 2 mps 670 mmHg 55%
    19:00 +20°C° 0 mm 2 mps 670 mmHg 58%
    20:00 +20°C° 0 mm 2 mps 670 mmHg 61%
    21:00 +19°C° 0 mm 2 mps 670 mmHg 64%
    22:00 +19°C° 0 mm 2 mps 669 mmHg 64%
    23:00 +19°C° 0 mm 3 mps 669 mmHg 64%

    22 October, Tuesday

    Time Temperature Precipitation Wind Pressure Humidity
    00:00 +18°C° 0 mm 3 mps 669 mmHg 64%
    01:00 +18°C° 0 mm 3 mps 668 mmHg 65%
    02:00 +18°C° 0 mm 3 mps 668 mmHg 66%
    03:00 +17°C° 0 mm 2 mps 667 mmHg 67%
    04:00 +17°C° 0 mm 2 mps 667 mmHg 67%
    05:00 +17°C° 0 mm 2 mps 667 mmHg 66%
    06:00 +17°C° 0 mm 2 mps 667 mmHg 66%
    07:00 +19°C° 0 mm 3 mps 667 mmHg 56%
    08:00 +22°C° 0 mm 4 mps 668 mmHg 45%
    09:00 +25°C° 0 mm 4 mps 669 mmHg 34%
    10:00 +26°C° 0 mm 6 mps 669 mmHg 32%
    11:00 +27°C° 0 mm 7 mps 668 mmHg 30%
    12:00 +28°C° 0 mm 9 mps 668 mmHg 28%
    13:00 +28°C° 0 mm 9 mps 667 mmHg 29%
    14:00 +27°C° 0 mm 10 mps 667 mmHg 29%
    15:00 +27°C° 0 mm 10 mps 666 mmHg 30%
    16:00 +26°C° 0 mm 9 mps 665 mmHg 33%
    17:00 +23°C° 0 mm 9 mps 664 mmHg 37%
    18:00 +22°C° 0 mm 8 mps 664 mmHg 40%
    19:00 +22°C° 0 mm 9 mps 663 mmHg 39%
    20:00 +22°C° 0 mm 11 mps 663 mmHg 39%
    21:00 +22°C° 0 mm 12 mps 663 mmHg 38%
    22:00 +22°C° 0 mm 14 mps 662 mmHg 40%
    23:00 +22°C° 0 mm 15 mps 662 mmHg 42%
    Show more